Location: Newark
(45.6000°N, 12.8833°E)
Time: 15:17:56
(UTC+00:00)

Envisat - Visible Passes

Search period start: 21 October 2019 00:00
Search period end: 31 October 2019 00:00
Orbit: 764 x 766 km, 98.1° (Epoch: 21 October)

Date Brightness Start Highest point End Pass type
(mag) Time Alt. Az. Time Alt. Az. Time Alt. Az.
21 Oct 3.0 16:54:17 10° SSE 16:59:19 69° ENE 17:04:24 10° N visible
21 Oct 5.9 18:35:48 10° SW 18:38:51 16° W 18:41:56 10° NW visible
22 Oct 6.0 05:01:44 10° NE 05:05:28 20° E 05:09:11 10° SE visible
22 Oct 4.8 17:57:10 10° SSW 18:01:44 33° W 18:06:19 10° NNW visible
23 Oct 3.3 17:19:45 10° S 17:24:49 71° WSW 17:29:55 10° NNW visible
24 Oct 3.1 16:43:08 10° SSE 16:48:05 56° ENE 16:53:04 10° N visible
24 Oct 5.6 18:23:47 10° SW 18:27:28 20° W 18:31:09 10° NW visible
25 Oct 6.1 04:50:56 10° NE 04:54:04 16° E 04:57:12 10° SE visible
25 Oct 4.3 17:45:37 10° SSW 17:50:24 41° W 17:55:13 10° NNW visible
26 Oct 3.0 17:08:28 10° SSE 17:13:33 88° W 17:18:39 10° NNW visible
26 Oct 6.2 18:51:42 10° WSW 18:53:18 11° W 18:54:54 10° WNW visible
27 Oct 3.3 16:32:04 10° SE 16:36:52 45° ENE 16:41:43 10° N visible
27 Oct 5.3 18:11:58 10° SSW 18:16:05 25° W 18:20:14 10° NW visible
28 Oct 6.3 04:40:25 10° ENE 04:42:40 13° E 04:44:54 10° ESE visible
28 Oct 3.9 17:34:09 10° S 17:39:05 52° W 17:44:04 10° NNW visible
29 Oct 2.9 16:57:13 10° SSE 17:02:17 75° ENE 17:07:22 10° N visible
29 Oct 6.0 18:39:07 10° WSW 18:41:53 15° W 18:44:39 10° NW visible
30 Oct 5.9 05:04:33 10° NE 05:08:28 22° E 05:12:22 10° SE visible
30 Oct 3.5 16:21:04 10° SE 16:25:40 36° ENE 16:30:18 10° N visible
30 Oct 4.9 18:00:16 10° SSW 18:04:44 31° W 18:09:13 10° NNW visible
